Location: Fort Wayne
(41.1310°N, 85.1290°W)
Time: 22:56:11
(UTC-04:00)

OPAL - Visible Passes

Search period start: 23 June 2018 00:00
Search period end: 03 July 2018 00:00
Orbit: 743 x 795 km, 100.2° (Epoch: 23 June)

Date Brightness Start Highest point End Pass type
(mag) Time Alt. Az. Time Alt. Az. Time Alt. Az.
23 Jun 9.6 01:06:36 14° WSW 01:07:46 15° W 01:10:30 10° WNW visible
23 Jun 8.6 22:50:18 18° ESE 22:53:09 30° ENE 22:57:31 10° N visible
24 Jun 8.6 00:30:35 28° SW 00:31:56 32° W 00:36:27 10° NW visible
24 Jun 9.5 22:15:17 10° E 22:18:02 15° ENE 22:20:51 10° NNE visible
24 Jun 7.5 23:54:35 41° S 23:56:17 73° WSW 00:01:22 10° NNW visible
25 Jun 7.8 23:18:35 29° SE 23:20:51 52° ENE 23:25:47 10° N visible
26 Jun 9.3 00:58:52 17° WSW 01:00:00 18° W 01:03:29 10° NW visible
26 Jun 8.9 22:42:35 15° ESE 22:45:36 25° ENE 22:49:42 10° N visible
27 Jun 8.3 00:22:52 33° SW 00:24:14 40° W 00:29:00 10° NNW visible
27 Jun 9.6 22:08:34 10° E 22:10:34 12° NE 22:12:35 10° NNE visible
27 Jun 7.4 23:46:52 41° SSE 23:48:39 89° WSW 23:53:46 10° NNW visible
28 Jun 8.1 23:10:52 25° ESE 23:13:16 42° ENE 23:18:03 10° N visible
29 Jun 9.1 00:51:09 21° WSW 00:52:17 23° W 00:56:17 10° NW visible
29 Jun 9.1 22:34:52 12° ESE 22:38:05 21° ENE 22:41:47 10° NNE visible
30 Jun 8.0 00:15:09 39° SSW 00:16:33 50° WSW 00:21:31 10° NNW visible
30 Jun 9.8 22:03:01 10° NE 22:03:06 10° NE 22:03:10 10° NE visible
30 Jun 7.5 23:39:09 39° SSE 23:41:01 74° ENE 23:46:09 10° NNW visible
01 Jul 9.7 01:19:27 12° WSW 01:20:26 13° W 01:22:38 10° WNW visible
01 Jul 8.5 23:03:10 22° ESE 23:05:42 34° ENE 23:10:18 10° N visible
02 Jul 8.8 00:43:27 26° WSW 00:44:34 28° W 00:48:58 10° NW visible
02 Jul 9.4 22:27:21 10° E 22:30:34 17° ENE 22:33:50 10° NNE visible
